RH
48 45 41 36 38 44 48 46 46 48 48 50 48 47 46 44 41 45 43 41 37 37 36 36 37 38 39 41 44 46 47 49 52 55 57 58 57 57 57 58 61 64 66
52 46 44 41 36 36 43 48 49 54 56 54 58 57 53 52 49 48 48 46 42 39 38 38 39 40 38 39 42 44 47 49 52 55 58 61 62 64 63 63 64 65 69
54 51 46 44 42 36 36 38 43 48 48 52 60 63 65 60 55 47 42 39 40 44 44 43 42 46 46 48 49 51 53 56 56 61 64 61 56 58 60 62 65 70 73
49 51 47 43 40 39 37 36 38 40 43 43 45 50 52 49 44 44 45 47 48 46 46 43 41 45 50 56 52 53 54 58 63 66 70 72 69 67 68 72 73 75 79
42 45 48 44 43 40 38 37 37 38 43 41 40 41 42 41 40 39 39 39 41 41 41 40 45 50 51 48 51 55 57 59 59 61 69 71 74 77 76 74 76 80 86
32 37 42 45 42 39 38 35 35 34 31 31 32 31 30 30 31 31 31 31 31 30 32 33 35 37 44 48 52 56 58 58 61 61 61 65 68 74 79 81 81 85 87
30 32 37 41 39 34 33 31 29 27 24 24 24 23 22 21 23 28 31 29 29 33 29 29 31 33 36 42 46 49 52 57 62 64 71 75 78 80 81 86 86 86 91
34 31 33 36 37 36 35 32 26 23 22 22 21 21 21 21 21 22 25 31 32 31 31 35 39 39 41 42 43 45 48 48 53 56 63 65 67 76 78 88 94 96 96
37 34 34 37 38 35 33 32 25 24 23 22 22 21 21 21 21 21 22 23 27 31 35 39 41 43 39 39 40 40 42 46 47 50 55 61 67 77 76 82 85 90 90
41 39 38 41 42 35 31 30 30 28 26 24 24 23 22 21 20 20 21 22 22 25 28 32 35 35 33 32 35 37 40 41 43 46 48 55 61 70 81 85 90 93 97
46 42 42 43 46 38 35 36 31 29 27 26 25 24 24 23 23 24 23 23 23 23 24 25 26 26 31 33 34 36 38 37 44 48 50 56 66 73 78 80 83 87 95
48 45 44 46 48 44 40 40 37 33 30 29 28 27 27 26 27 27 28 30 31 31 32 33 33 33 35 36 36 37 38 40 44 46 50 55 61 70 76 77 77 81 87
54 50 47 45 43 41 42 42 39 36 34 32 31 30 30 31 31 32 33 34 35 37 38 39 40 37 36 37 38 40 42 43 43 47 52 57 62 68 75 76 79 85 89
52 51 49 47 46 45 44 42 40 39 36 36 35 36 38 38 38 37 37 38 38 37 35 33 34 35 36 38 40 42 45 46 48 52 55 62 66 73 75 78 81 89 95
55 54 52 51 51 50 48 46 44 42 41 40 42 42 42 41 40 39 38 38 36 35 35 36 38 40 42 44 45 45 46 49 52 55 60 67 71 78 84 87 95 96 96
59 58 56 55 55 55 54 51 48 47 46 47 47 49 48 46 42 41 40 39 39 39 40 41 43 44 46 45 47 49 51 53 57 56 61 69 74 80 86 91 92 90 83
58 59 58 58 59 57 56 55 52 51 51 52 51 51 48 44 43 42 42 42 43 43 46 47 49 49 50 53 53 54 56 60 65 66 69 73 78 78 73 71 64 51 41
61 63 64 67 64 61 59 57 56 56 56 55 55 55 52 50 49 47 48 47 47 49 50 52 53 55 57 57 58 60 62 65 64 62 61 59 48 39 32 30 28 26 23
58 59 64 64 63 62 61 60 60 60 59 57 57 55 55 55 55 53 53 53 54 57 58 58 58 59 59 60 58 56 54 48 38 31 27 25 23 22 20 19 18 19 18
66 64 65 68 67 65 65 65 64 62 61 56 57 57 58 58 57 59 58 58 62 63 62 60 60 60 59 54 39 30 26 24 24 22 22 21 20 19 18 18 17 16 15
72 72 70 69 68 68 69 68 67 63 58 56 58 59 63 63 64 63 62 63 65 64 62 62 57 44 32 28 26 24 24 23 21 21 20 20 20 20 19 18 17 16 15
81 77 74 72 71 71 72 72 68 62 59 59 62 65 67 68 68 68 67 67 66 63 57 41 33 30 28 26 25 25 24 22 22 22 22 22 21 21 20 19 19 18 16
84 81 78 74 73 75 74 72 67 66 63 63 67 70 71 73 73 71 69 68 61 45 36 32 31 29 28 27 27 26 25 24 23 23 23 23 22 22 22 21 19 18 18
87 83 80 77 74 74 74 72 69 68 66 66 71 75 76 76 73 72 68 50 42 37 34 33 31 29 29 28 28 27 26 25 24 24 24 23 23 23 21 20 19 19 24
89 86 83 80 77 73 73 73 73 75 73 73 74 76 75 73 73 61 46 44 40 37 35 33 31 31 30 29 29 29 28 27 27 26 24 24 24 23 22 22 22 26 32
90 89 86 82 77 74 70 71 74 74 74 75 77 76 76 75 57 45 44 42 40 38 37 34 33 32 31 30 30 30 30 28 27 26 25 25 24 22 22 23 25 33 35